Temperature
24 20 20 21 21 22 23 24 23 24 25 25 24 24 24 24 24 23 23 22 22 22 22 22 22 22 22 21 21 21 20 20 19 19 19 18 18 18 18 18 18 17 17 17
21 20 21 22 23 24 24 23 23 24 25 25 24 23 23 23 23 23 23 22 22 22 22 22 22 22 21 21 21 21 20 20 20 19 19 19 18 18 18 18 17 17 17 17
21 22 24 24 24 24 24 23 23 24 24 24 24 23 23 23 24 23 23 23 23 22 22 21 21 21 21 21 21 20 20 20 19 19 19 18 18 18 17 17 17 17 17 17
21 23 24 24 24 24 23 24 25 25 23 21 23 21 21 22 22 22 22 23 22 22 22 22 21 21 21 21 21 21 20 20 19 19 19 18 18 18 18 18 17 17 17 17
22 23 24 24 25 25 24 24 24 24 23 21 21 20 20 21 21 21 22 22 22 22 22 22 22 21 21 21 21 20 20 20 19 19 19 18 18 18 18 17 17 17 17 17
22 24 24 25 26 25 25 24 22 20 19 20 21 21 20 20 21 22 22 23 23 23 22 22 22 21 21 21 20 20 20 19 19 19 19 18 18 18 18 17 17 17 17 17
22 23 24 25 25 24 24 20 19 20 18 19 20 21 20 21 22 22 22 22 22 22 22 22 21 21 20 20 20 20 19 19 19 19 18 18 18 18 18 18 17 17 17 17
21 21 23 25 24 23 23 20 19 19 19 19 20 20 20 21 22 23 23 22 22 22 22 22 21 21 20 20 20 19 19 19 19 19 18 18 18 18 18 17 17 17 17 17
20 21 24 25 25 24 23 20 19 18 19 19 19 20 21 21 21 21 22 21 21 21 21 21 21 21 20 20 20 20 19 19 19 19 18 18 18 18 18 17 17 17 17 17
21 21 23 24 24 23 22 21 18 18 18 19 19 20 19 20 20 20 20 20 20 21 20 20 20 21 20 20 20 19 19 19 19 18 18 18 18 18 17 17 17 17 17 16
20 20 21 22 22 22 22 21 18 16 17 18 18 18 20 19 19 19 19 20 20 20 20 20 20 20 20 20 19 19 19 19 18 18 18 18 18 17 17 17 17 17 16 16
19 17 18 20 22 23 22 21 18 18 18 16 17 18 20 19 19 19 19 20 20 20 19 19 19 19 19 19 19 19 19 18 18 18 18 17 17 17 17 17 17 16 16 16
19 17 17 19 19 20 21 21 19 17 16 16 17 18 19 18 19 19 19 19 19 19 19 19 19 19 19 19 19 18 18 18 18 17 17 17 17 17 16 16 16 16 16 16
19 16 17 18 18 19 20 21 20 18 16 16 17 18 18 18 18 18 19 19 18 18 18 19 18 18 18 18 18 18 18 18 18 17 17 17 16 16 16 16 16 16 16 15
17 17 18 18 19 20 20 20 20 19 18 17 18 18 18 18 18 18 19 19 18 18 18 18 18 18 18 18 18 18 18 17 17 17 17 17 16 16 16 16 16 16 15 15
15 16 17 17 19 19 19 20 20 20 19 18 18 18 18 18 18 18 18 18 18 18 18 18 18 17 18 18 18 17 17 17 17 17 16 16 16 16 15 15 15 15 15 15
15 15 15 15 17 18 17 18 19 19 18 18 17 17 17 17 17 17 18 18 17 17 17 17 17 17 17 17 17 17 17 17 16 16 16 16 16 16 15 15 14 15 15 15
14 14 13 14 16 17 16 18 18 18 17 17 17 17 17 16 17 17 18 18 17 17 17 17 17 17 17 17 17 17 16 16 16 16 16 16 15 15 15 15 14 15 15 15
14 14 13 13 15 15 17 17 17 16 16 17 16 16 16 16 16 16 17 17 17 17 17 17 17 17 17 16 16 16 16 16 16 16 15 15 15 15 15 15 14 15 15 15
14 13 13 13 15 15 15 17 17 16 15 16 16 15 15 16 14 15 17 17 17 17 17 17 17 16 16 16 16 16 16 15 15 15 15 15 15 15 15 15 15 15 15 14
14 13 13 13 14 14 15 16 17 16 15 16 16 16 16 15 15 16 16 16 17 17 16 17 16 16 16 16 15 15 15 15 15 15 15 15 14 14 14 14 14 14 14 14
13 13 13 13 13 14 15 15 14 14 15 15 16 16 16 16 16 16 16 16 16 16 16 16 16 16 15 15 15 15 15 14 14 14 14 14 14 14 14 14 14 14 14 14
13 12 12 12 12 13 14 14 15 15 15 15 15 16 16 15 16 16 16 16 16 16 16 16 15 15 15 15 15 15 14 14 14 14 14 14 14 14 14 14 13 13 13 13
13 13 12 12 13 13 14 15 15 15 15 15 15 16 16 16 15 15 16 15 15 15 15 15 15 15 14 14 14 14 14 13 13 13 13 13 13 13 13 13 13 13 13 13
13 13 12 12 12 13 14 14 14 14 15 15 15 15 16 15 15 15 15 15 15 15 15 15 15 14 14 14 14 14 13 13 13 13 13 13 13 13 13 13 13 13 13 13
12 12 12 11 13 12 13 14 14 14 14 14 15 15 15 15 15 14 14 14 14 14 14 14 14 14 13 13 13 13 13 13 13 12 12 12 12 12 12 12 12 12 12 12
Wind_Speed
2 2 6 9 9 8 5 5 7 8 6 2 5 6 8 8 9 10 11 10 10 9 9 11 11 12 10 9 9 8 8 7 6 4 4 4 3 3 2 3 5 6 6 6
2 7 13 10 7 6 6 6 7 8 4 1 2 4 6 8 10 13 14 13 12 10 8 9 10 11 10 10 9 9 8 8 7 5 5 4 4 3 3 2 4 6 6 6
9 9 8 7 8 7 7 6 6 6 5 3 2 2 4 4 5 7 10 12 13 14 13 12 11 11 11 10 10 9 8 8 7 6 4 4 3 2 1 2 2 3 5 6
7 9 7 7 8 7 8 8 5 4 1 4 2 2 6 4 4 6 8 9 12 12 12 12 12 12 12 11 11 10 9 8 7 7 7 7 6 4 4 4 3 3 4 5
7 6 6 7 9 7 7 5 3 2 2 2 1 3 6 3 5 8 10 11 12 12 13 13 13 14 13 11 10 8 7 6 6 7 8 7 5 4 3 3 4 3 3 4
9 7 6 8 7 6 5 1 5 4 4 3 5 4 6 5 8 8 9 11 13 13 13 12 11 11 10 9 8 8 8 6 6 7 7 7 7 6 5 4 5 4 3 3
7 7 5 2 3 3 3 5 3 5 3 6 5 3 7 7 7 9 9 10 11 12 11 11 12 12 11 11 10 9 9 7 6 7 7 7 8 8 8 7 6 5 4 3
3 7 5 3 5 5 4 9 7 5 5 5 4 4 6 5 3 4 6 8 9 9 10 11 13 13 13 12 11 10 10 9 8 8 7 7 7 6 6 6 6 6 5 5
4 6 5 3 3 6 4 4 8 7 2 1 4 5 5 4 4 2 2 6 8 8 8 9 10 11 12 12 11 12 11 9 8 8 7 6 6 6 6 6 6 5 5 5
4 3 5 5 3 2 5 6 6 5 3 3 4 3 3 3 2 1 2 5 6 7 7 7 8 9 10 10 9 10 10 9 8 7 7 6 6 6 6 6 6 7 6 5
3 1 6 4 0 2 1 2 4 4 5 5 3 6 4 3 2 2 3 5 7 8 8 8 7 8 8 7 7 8 9 8 7 7 6 5 5 5 6 6 7 7 6 6
1 4 2 6 5 3 3 4 6 4 3 5 4 6 3 1 1 1 1 3 6 7 7 7 6 6 6 6 6 6 7 7 8 7 6 5 4 5 6 6 6 7 7 6
3 5 3 7 7 6 3 1 3 5 4 3 4 6 2 2 3 1 2 3 6 6 7 6 5 6 6 5 5 5 5 5 5 6 6 5 4 5 5 5 5 6 7 6
3 3 5 5 5 3 5 5 1 4 3 4 6 6 5 3 2 1 2 4 6 6 7 7 5 5 6 5 5 5 5 4 4 5 5 6 6 6 6 5 5 6 6 6
5 2 1 3 4 3 4 5 3 2 5 6 6 6 7 6 4 3 4 6 7 6 7 7 6 5 6 6 5 5 5 4 5 5 5 5 5 4 4 5 5 5 5 5
4 2 2 4 5 5 5 6 3 3 3 4 3 4 5 2 1 2 3 5 7 7 7 6 6 6 6 6 5 5 4 5 5 5 4 3 5 5 5 4 4 4 4 4
1 2 2 3 5 5 4 4 1 1 1 3 4 5 2 1 2 3 3 4 4 6 6 5 5 5 5 6 6 6 4 5 5 5 4 3 4 5 5 5 5 5 5 4
4 3 3 1 3 3 6 2 2 2 1 1 1 2 3 3 2 2 2 4 4 4 5 4 4 4 4 4 5 5 5 5 5 4 3 3 4 5 4 4 5 4 3 4
6 6 3 2 2 5 5 3 1 1 3 3 2 2 3 4 5 3 2 3 4 4 4 4 4 4 4 4 5 6 5 5 5 4 3 3 4 4 4 4 4 3 3 3
4 5 5 3 3 4 5 7 5 2 1 4 1 3 3 4 3 2 1 2 2 3 3 4 4 4 4 3 5 6 5 5 4 4 4 4 4 5 5 4 3 2 3 3
3 2 3 3 4 4 5 7 5 2 4 4 1 2 3 3 5 4 2 1 2 3 3 4 5 4 4 4 5 5 4 4 3 3 3 3 3 3 4 3 2 2 2 2
3 2 2 3 3 5 4 3 1 4 3 2 1 2 2 2 1 2 3 3 3 3 3 4 4 3 2 4 5 5 4 3 3 3 3 3 2 2 2 2 2 2 3 3
2 5 4 5 5 4 2 2 3 2 0 2 0 1 2 2 1 2 3 4 3 4 3 3 4 3 2 3 5 5 3 2 3 3 3 3 2 2 2 3 3 2 2 3
2 1 2 1 2 2 2 2 2 1 1 2 1 2 2 2 2 3 4 3 2 3 3 4 4 4 2 2 2 3 3 3 4 3 2 2 2 2 2 2 2 3 3 3
3 0 1 2 3 1 3 2 2 2 2 1 1 2 3 4 2 3 4 4 3 3 3 4 5 4 3 2 2 3 3 4 3 3 2 2 2 2 2 2 2 3 3 4
2 4 4 5 6 4 4 3 2 1 2 1 0 1 1 3 3 3 3 3 4 4 3 3 3 3 3 3 3 3 3 4 4 3 2 2 2 2 2 2 0 1 1 2
Wind_Direction
230 119 233 234 215 210 228 251 267 270 266 196 201 212 212 185 169 170 169 168 164 167 169 164 161 158 152 151 153 157 161 169 158 151 156 159 169 171 165 166 159 161 158 152
359 248 237 237 247 240 239 254 269 289 284 220 201 221 217 193 185 180 175 173 171 170 165 166 164 160 158 161 164 163 165 171 169 170 171 168 162 167 174 171 163 165 161 156
215 242 242 234 251 252 257 229 240 251 306 351 99 299 245 229 186 181 182 173 173 173 174 173 171 170 166 167 170 170 171 170 171 162 143 135 115 107 128 151 177 183 169 165
243 256 258 246 240 225 254 248 234 237 266 275 147 232 272 229 209 192 193 185 182 177 174 175 174 173 174 175 175 172 170 167 168 159 155 155 162 173 190 182 181 182 172 165
255 256 246 239 237 218 226 241 233 227 209 290 326 158 268 243 220 217 204 188 183 177 175 178 180 177 176 174 174 171 164 162 164 165 166 165 169 179 169 157 159 171 173 170
250 261 227 226 245 220 202 31 7 35 70 295 255 182 259 236 219 220 207 189 185 178 176 178 176 167 169 169 167 164 162 170 172 171 173 173 174 170 160 164 167 174 174 173
293 288 277 249 291 300 113 98 25 348 353 256 264 208 243 247 225 210 202 189 183 171 168 171 166 167 169 170 170 165 167 176 181 178 183 187 184 176 177 177 173 174 172 179
255 283 272 235 202 216 189 144 162 199 229 271 314 236 254 260 229 197 183 173 169 162 167 170 170 170 171 172 171 169 174 180 186 187 190 190 185 181 182 179 174 180 183 187
202 260 284 280 220 167 168 172 173 155 201 255 281 281 311 349 12 54 149 156 166 164 164 167 167 168 168 171 175 176 179 183 190 191 186 183 183 180 181 180 179 185 184 181
170 272 293 295 9 14 159 161 100 122 171 243 276 267 257 300 315 32 145 160 164 156 150 153 154 160 165 169 176 179 177 182 188 186 185 183 187 186 181 177 180 180 180 175
100 155 312 352 135 244 21 93 111 130 154 165 242 270 235 223 232 201 186 168 162 159 157 153 152 152 153 153 163 174 178 177 182 186 188 188 188 184 179 180 180 179 176 174
53 115 292 277 270 217 166 170 141 149 228 172 177 257 270 196 246 173 152 149 150 150 152 151 152 150 149 150 156 165 173 174 180 183 179 184 188 180 180 183 181 175 174 178
54 93 30 338 342 2 28 10 140 139 135 165 181 250 267 18 26 57 87 123 127 132 135 134 144 145 150 155 153 156 166 165 168 172 169 167 178 184 183 186 179 173 170 171
78 100 158 200 236 288 305 312 335 123 156 210 214 231 273 291 301 287 135 133 137 138 139 134 136 141 145 149 151 150 157 153 148 152 156 165 178 187 187 181 172 168 167 167
71 80 280 258 277 304 296 303 287 211 196 197 221 219 234 234 229 206 149 135 141 150 153 150 149 147 142 140 142 144 149 147 142 139 153 168 171 167 170 174 166 157 158 169
56 92 14 326 328 339 325 314 289 237 210 199 204 245 241 215 155 118 132 131 142 154 157 153 149 147 149 149 148 144 142 143 136 140 154 165 163 157 158 168 166 155 148 150
64 114 71 295 319 356 316 305 326 246 197 171 212 232 196 147 169 167 145 120 132 135 139 150 155 157 161 162 158 155 153 145 142 148 154 164 146 144 154 166 164 162 157 152
164 133 139 261 17 260 247 289 53 63 39 69 166 175 172 164 163 126 120 119 118 120 127 144 158 161 165 159 148 144 141 142 142 140 148 157 147 139 141 148 166 173 164 161
166 149 137 136 207 275 295 328 7 23 324 355 85 108 124 107 79 50 51 94 132 144 143 156 159 158 154 150 147 138 135 133 138 148 158 158 146 142 147 159 180 181 165 174
90 115 131 150 185 232 264 306 310 123 282 326 85 130 134 106 109 235 239 119 115 124 146 146 132 121 132 146 141 136 140 140 156 170 167 160 154 158 168 173 192 196 176 188
47 63 141 177 214 250 275 312 344 137 242 308 335 159 142 170 193 196 178 135 142 139 159 146 134 136 155 154 138 141 147 159 175 159 145 145 153 166 171 172 178 162 163 162
165 155 184 162 201 246 295 2 91 225 261 325 35 111 119 128 117 130 139 143 136 132 144 139 132 140 173 156 144 145 169 183 162 148 144 148 157 175 170 163 181 177 163 169
169 182 182 186 214 242 258 210 237 212 296 317 101 138 136 122 143 166 165 156 156 158 161 139 135 143 173 174 161 165 191 171 145 142 157 173 174 177 170 170 177 178 166 174
300 136 132 226 265 266 294 299 324 293 247 268 216 145 126 137 169 160 155 155 154 152 151 142 139 150 176 199 182 178 177 159 145 152 174 182 178 182 174 176 177 175 178 178
244 256 154 232 257 311 309 289 296 304 294 248 161 150 144 129 136 156 157 164 175 172 166 152 151 165 191 200 196 185 163 149 149 163 176 188 189 196 198 188 197 195 210 201
228 187 182 216 217 191 242 257 253 304 317 308 40 91 115 140 143 147 177 183 171 168 161 154 160 173 194 195 204 203 175 158 156 162 180 195 197 202 194 180 268 316 239 220
Height
1491 1498 1503 1498 1497 1498 1498 1501 1502 1494 1485 1488 1492 1492 1489 1489 1491 1493 1495 1498 1500 1502 1505 1508 1510 1513 1515 1517 1519 1520 1522 1524 1525 1526 1527 1528 1529 1530 1531 1532 1532 1533 1533 1533
1497 1500 1491 1489 1489 1492 1495 1501 1500 1492 1483 1486 1491 1492 1488 1488 1489 1489 1491 1494 1497 1501 1503 1505 1508 1511 1513 1515 1516 1518 1520 1521 1523 1524 1525 1526 1528 1529 1530 1531 1531 1532 1532 1532
1497 1490 1483 1487 1489 1492 1493 1497 1496 1494 1487 1487 1492 1499 1492 1488 1488 1490 1490 1491 1494 1496 1499 1502 1505 1508 1510 1512 1514 1516 1517 1519 1521 1523 1524 1525 1527 1528 1529 1529 1529 1530 1531 1531
1491 1483 1483 1485 1487 1487 1495 1484 1485 1487 1497 1505 1498 1517 1501 1492 1490 1488 1489 1489 1490 1493 1495 1499 1501 1504 1506 1509 1511 1513 1515 1517 1519 1521 1522 1523 1524 1525 1526 1527 1528 1529 1529 1530
1488 1481 1482 1484 1481 1480 1484 1478 1482 1486 1495 1504 1502 1514 1507 1493 1493 1488 1484 1485 1487 1489 1491 1495 1497 1500 1503 1506 1508 1510 1513 1514 1516 1518 1520 1521 1522 1523 1524 1525 1526 1527 1528 1529
1480 1475 1475 1475 1472 1473 1475 1481 1486 1493 1503 1517 1505 1511 1510 1495 1489 1484 1480 1481 1482 1486 1488 1492 1495 1499 1501 1504 1506 1508 1510 1512 1514 1515 1517 1518 1519 1520 1522 1523 1524 1525 1526 1527
1483 1476 1471 1470 1475 1474 1477 1497 1517 1519 1526 1522 1502 1505 1504 1484 1479 1478 1477 1479 1481 1483 1486 1489 1492 1495 1498 1501 1503 1505 1508 1509 1511 1513 1514 1516 1517 1518 1519 1521 1522 1523 1524 1525
1495 1492 1474 1469 1473 1479 1480 1493 1518 1529 1530 1520 1504 1506 1494 1478 1475 1474 1474 1476 1479 1481 1484 1486 1489 1492 1495 1498 1500 1502 1504 1506 1508 1510 1512 1513 1515 1516 1517 1518 1520 1521 1522 1524
1492 1489 1470 1466 1465 1470 1481 1490 1491 1509 1513 1520 1514 1500 1486 1477 1476 1475 1475 1477 1478 1480 1482 1485 1487 1490 1493 1495 1497 1500 1502 1505 1506 1508 1509 1511 1513 1514 1515 1516 1518 1519 1521 1522
1480 1486 1474 1467 1465 1468 1473 1479 1496 1509 1521 1525 1515 1505 1501 1487 1482 1477 1477 1477 1477 1478 1481 1483 1485 1488 1491 1493 1496 1498 1500 1503 1505 1507 1508 1509 1511 1512 1513 1514 1515 1517 1519 1520
1476 1487 1483 1474 1476 1478 1478 1483 1492 1505 1510 1522 1525 1513 1486 1484 1481 1478 1476 1475 1476 1477 1479 1481 1484 1487 1489 1492 1494 1496 1498 1500 1503 1505 1506 1508 1509 1510 1512 1513 1514 1516 1517 1519
1478 1488 1493 1483 1471 1467 1472 1479 1489 1505 1509 1511 1517 1510 1481 1481 1479 1476 1475 1475 1475 1476 1478 1481 1483 1485 1488 1489 1492 1494 1496 1498 1501 1503 1504 1506 1507 1508 1509 1511 1513 1514 1516 1517
1478 1490 1501 1496 1487 1477 1477 1478 1482 1492 1503 1510 1514 1505 1479 1480 1479 1477 1476 1475 1476 1477 1479 1480 1482 1484 1486 1488 1490 1492 1494 1496 1498 1500 1502 1503 1505 1506 1507 1509 1511 1512 1514 1515
1475 1489 1498 1502 1496 1487 1484 1480 1479 1490 1503 1505 1500 1493 1483 1480 1478 1477 1476 1475 1477 1477 1478 1479 1481 1483 1485 1487 1488 1490 1492 1495 1497 1498 1499 1501 1501 1503 1505 1507 1509 1510 1512 1513
1478 1489 1487 1486 1481 1480 1481 1479 1478 1483 1488 1494 1491 1487 1481 1477 1476 1475 1474 1474 1476 1477 1478 1479 1481 1483 1484 1486 1488 1490 1491 1493 1494 1496 1497 1498 1500 1501 1503 1505 1506 1508 1509 1511
1482 1488 1488 1488 1480 1480 1480 1476 1475 1477 1479 1482 1482 1482 1475 1474 1475 1475 1474 1474 1475 1476 1478 1479 1481 1482 1483 1485 1487 1489 1490 1491 1493 1494 1496 1495 1497 1499 1501 1502 1505 1506 1507 1509
1486 1489 1494 1497 1486 1483 1489 1480 1477 1477 1476 1478 1482 1480 1475 1476 1475 1474 1474 1474 1476 1477 1478 1479 1480 1482 1484 1485 1486 1487 1489 1490 1492 1493 1494 1495 1495 1496 1498 1501 1502 1504 1505 1506
1485 1490 1497 1498 1493 1500 1490 1476 1474 1476 1476 1474 1473 1473 1473 1474 1474 1474 1475 1475 1476 1477 1478 1480 1481 1483 1484 1485 1486 1487 1489 1490 1491 1492 1492 1493 1493 1494 1497 1499 1500 1502 1503 1504
1477 1486 1495 1501 1502 1496 1483 1476 1476 1479 1480 1474 1472 1472 1473 1474 1475 1477 1477 1476 1477 1477 1478 1479 1480 1482 1484 1485 1486 1486 1487 1489 1490 1490 1491 1491 1492 1494 1496 1497 1497 1499 1500 1502
1477 1482 1493 1498 1500 1501 1488 1476 1473 1476 1483 1475 1473 1473 1473 1474 1479 1479 1477 1477 1477 1477 1479 1479 1480 1481 1482 1484 1485 1485 1486 1487 1488 1489 1490 1491 1491 1493 1493 1495 1496 1496 1498 1499
1486 1489 1493 1497 1499 1492 1481 1476 1473 1485 1485 1475 1473 1473 1473 1474 1475 1475 1475 1476 1476 1477 1478 1479 1480 1480 1481 1482 1483 1484 1484 1485 1487 1488 1489 1490 1490 1491 1492 1493 1493 1494 1495 1496
1488 1492 1494 1495 1498 1495 1479 1476 1480 1481 1476 1474 1472 1472 1472 1472 1473 1473 1474 1475 1475 1475 1477 1478 1478 1479 1481 1481 1482 1482 1483 1484 1486 1486 1487 1488 1488 1490 1490 1490 1491 1492 1493 1493
1484 1485 1487 1489 1490 1481 1478 1477 1477 1476 1475 1474 1473 1473 1472 1472 1472 1473 1473 1474 1475 1476 1477 1477 1477 1478 1480 1480 1480 1480 1481 1483 1483 1484 1485 1485 1486 1487 1487 1488 1488 1489 1489 1490
1481 1479 1482 1483 1480 1478 1477 1476 1475 1474 1474 1473 1472 1472 1471 1470 1471 1471 1472 1473 1474 1475 1476 1475 1476 1477 1478 1479 1479 1479 1480 1481 1482 1482 1482 1483 1484 1484 1485 1485 1486 1486 1486 1487
1480 1479 1481 1482 1479 1477 1476 1475 1474 1473 1472 1471 1470 1470 1469 1469 1470 1470 1470 1472 1473 1474 1474 1474 1474 1475 1476 1477 1478 1478 1479 1479 1479 1479 1480 1480 1481 1481 1482 1482 1482 1483 1484 1485
1476 1477 1480 1480 1476 1476 1475 1474 1473 1472 1471 1470 1469 1469 1468 1468 1468 1469 1470 1470 1471 1471 1472 1472 1473 1473 1474 1475 1476 1476 1476 1477 1477 1477 1477 1478 1478 1479 1479 1479 1480 1481 1482 1482